Weather History for Tarapoto, Peru

Change the Weather History Date:

Wednesday, February 13, 2013

  Actual Average Record
Temperature  
Mean Temperature 82 °F -  
Max Temperature 92 °F 90 °F - ()
Min Temperature 73 °F 68 °F - ()
Cooling Degree Days 18    
Growing Degree Days 32 (Base 50)    
Moisture  
Dew Point 72 °F    
Average Humidity 69    
Maximum Humidity 94    
Minimum Humidity 46    
Precipitation  
Precipitation 0.00 in 0.17 in - ()
Sea Level Pressure  
Sea Level Pressure 29.85 in    
Wind  
Wind Speed 4 mph ()    
Max Wind Speed 12 mph    
Max Gust Speed -    
Visibility 6.1 miles    
Events Thunderstorm    
T = Trace of Precipitation, MM = Missing Value Source: Averaged Metar Reports

Daily Weather History Graph

Daily Weather History Graph

Search for Another Location

Airport:

Trip Planner

Search our weather history database for the weather conditions in past years. The results will help you decide how hot, cold, wet, or windy it might be!

Date:

Astronomy

Feb. 13, 2013 Rise Set
Actual Time 6:10 AM PET 6:29 PM PET
Civil Twilight 5:48 AM PET 6:50 PM PET
Nautical Twilight 5:23 AM PET 7:15 PM PET
Astronomical Twilight 4:58 AM PET 7:40 PM PET
Moon 8:51 AM PET (2/13) 9:07 PM PET (2/13)
Length of Visible Light 13h 01m
Length of Day
12h 19m
Waxing Crescent, 13% of the Moon is Illuminated
Feb 13
Waxing Crescent
Feb 17
First Quarter
Feb 25
Full
Mar 4
Last Quarter
Mar 11
New

Hourly Weather History & Observations

Time (PET) Temp. Heat Index Dew Point Humidity Pressure Visibility Wind Dir Wind Speed Gust Speed Precip Events Conditions
6:00 AM 73.4 °F - 71.6 °F 94% 29.80 in 6.2 mi Calm Calm - N/A   Scattered Clouds
7:00 AM 73 °F - 71 °F 90% 30.02 in 6 mi Calm Calm - -   Partly Cloudy
7:00 AM 73.4 °F - 71.6 °F 94% 29.83 in 6.2 mi Calm Calm - N/A   Scattered Clouds
8:00 AM 75.2 °F - 71.6 °F 89% 29.86 in 6.2 mi Calm Calm - N/A   Scattered Clouds
9:00 AM 78.8 °F - 71.6 °F 78% 29.86 in 6.2 mi Calm Calm - N/A   Scattered Clouds
10:00 AM 82 °F - 72 °F 66% 30.07 in 6 mi ESE 3.5 mph - -   Partly Cloudy
10:00 AM 82.4 °F 87.2 °F 71.6 °F 70% 29.86 in 6.2 mi ESE 3.5 mph - N/A   Scattered Clouds
11:00 AM 86.0 °F 93.4 °F 73.4 °F 66% 29.86 in 6.2 mi South 3.5 mph - N/A   Scattered Clouds
12:00 PM 87.8 °F 95.6 °F 73.4 °F 62% 29.83 in 6.2 mi NNW 11.5 mph - N/A   Mostly Cloudy
1:00 PM 90 °F - 73 °F 49% 30.00 in 6 mi WNW 9.2 mph - -   Partly Cloudy
1:00 PM 89.6 °F 98.2 °F 73.4 °F 59% 29.83 in 6.2 mi WNW 9.2 mph - N/A   Scattered Clouds
2:00 PM 91.4 °F 100.1 °F 73.4 °F 55% 29.77 in 6.2 mi NNE 9.2 mph - N/A   Scattered Clouds
3:00 PM 91.4 °F 100.1 °F 73.4 °F 55% 29.74 in 6.2 mi NNW 11.5 mph - N/A   Scattered Clouds
4:00 PM 92 °F - 74 °F 46% 29.88 in 6 mi North 11.5 mph - -   Partly Cloudy
4:00 PM 93.2 °F 102.4 °F 73.4 °F 52% 29.71 in 6.2 mi North 11.5 mph - N/A   Scattered Clouds
5:00 PM 89.6 °F 98.2 °F 73.4 °F 59% 29.71 in 6.2 mi North 8.1 mph - N/A   Scattered Clouds
6:00 PM 86.0 °F 93.4 °F 73.4 °F 66% 29.71 in 6.2 mi West 3.5 mph - N/A   Mostly Cloudy
7:00 PM 82 °F - 72 °F 65% 29.95 in 6 mi WNW 4.6 mph - -   Partly Cloudy
7:00 PM 82.4 °F 87.2 °F 71.6 °F 70% 29.77 in 6.2 mi WNW 4.6 mph - N/A   Mostly Cloudy
8:00 PM 80.6 °F 84.6 °F 71.6 °F 74% 29.77 in 6.2 mi WNW 5.8 mph - N/A   Scattered Clouds
9:00 PM 78.8 °F - 71.6 °F 78% 29.80 in 6.2 mi WNW 3.5 mph - N/A   Scattered Clouds
10:00 PM 77 °F - 71 °F 76% 29.98 in 6 mi Calm Calm - -   Partly Cloudy
10:00 PM 77.0 °F - 71.6 °F 83% 29.86 in 6.2 mi NNE 10.4 mph - N/A Thunderstorm Scattered Clouds